User: anonymous   Login
Location: Harbor Island
(32.3990°N, 80.4435°W)
Time: 19:13:56
(UTC-05:00)
Language:

Cosmos 1455 - Orbit

View from above orbital plane
View from above orbital plane
View from above satellite
View from above satellite

Ground track
Ground track

The orbit data is extracted from the following two-line orbital elements,

1 14032U 83037A   15031.13059041  .00005163  00000-0  28753-3 0  7423
2 14032 082.5153 222.5870 0020376 050.5009 088.6192 15.13238407729892
Epoch (UTC): 31 January 2015 03:08:03
Eccentricity: 0.0020376
inclination: 82.5153°
perigee height: 512 km
apogee height: 540 km
right ascension of ascending node: 222.5870°
argument of perigee: 50.5009°
revolutions per day: 15.13238407
mean anomaly at epoch: 88.6192°
orbit number at epoch: 72989

The dashed part of the orbit path shows where the satellite is in the earth's shadow,  

DLR